Time,TemperatureF,DewpointF,PressureIn,WindDirection,WindDirectionDegrees,WindSpeedMPH,WindSpeedGustMPH,Humidity,HourlyPrecipIn,Conditions,Clouds,dailyrainin,SoftwareType,DateUTC
2013-03-07 00:04:00,44.0,22.4,29.68,SW,218,18.0,21.0,42,0.00,CLR,CLR,0.00,WeatherDisplay:10.34,2013-03-07 07:04:00,
2013-03-07 00:09:00,43.8,22.2,29.68,SW,236,20.0,0.0,42,0.00,CLR,CLR,0.00,WeatherDisplay:10.34,2013-03-07 07:09:00,
2013-03-07 00:14:00,44.0,22.4,29.68,WSW,249,16.0,20.0,42,0.00,CLR,CLR,0.00,WeatherDisplay:10.34,2013-03-07 07:14:00,
2013-03-07 00:19:00,43.9,22.8,29.68,SW,223,21.0,23.0,43,0.00,CLR,CLR,0.00,WeatherDisplay:10.34,2013-03-07 07:19:00,
2013-03-07 00:24:00,43.6,23.1,29.71,SW,229,18.0,18.0,44,0.00,CLR,CLR,0.00,WeatherDisplay:10.34,2013-03-07 07:24:00,
2013-03-07 00:29:00,43.3,23.4,29.71,WSW,252,18.0,18.0,45,0.00,CLR,CLR,0.00,WeatherDisplay:10.34,2013-03-07 07:29:00,
2013-03-07 00:34:00,43.2,23.3,29.72,SW,236,14.0,20.0,45,0.00,CLR,CLR,0.00,WeatherDisplay:10.34,2013-03-07 07:34:00,
2013-03-07 00:39:00,43.0,23.1,29.72,WSW,238,14.0,20.0,45,0.00,CLR,CLR,0.00,WeatherDisplay:10.34,2013-03-07 07:39:00,
2013-03-07 00:44:00,43.1,23.2,29.72,West,265,21.0,23.0,45,0.00,CLR,CLR,0.00,WeatherDisplay:10.34,2013-03-07 07:44:00,
2013-03-07 00:49:00,43.1,23.2,29.72,West,279,17.0,23.0,45,0.00,CLR,CLR,0.00,WeatherDisplay:10.34,2013-03-07 07:49:00,
2013-03-07 00:54:00,42.9,23.0,29.73,WSW,242,9.0,10.0,45,0.00,CLR,CLR,0.00,WeatherDisplay:10.34,2013-03-07 07:54:00,
2013-03-07 00:59:00,42.6,22.7,29.73,WSW,248,13.0,13.0,45,0.00,CLR,CLR,0.00,WeatherDisplay:10.34,2013-03-07 07:59:00,
2013-03-07 01:04:00,42.4,22.5,29.73,WSW,252,11.0,13.0,45,0.00,CLR,CLR,0.00,WeatherDisplay:10.34,2013-03-07 08:04:00,
2013-03-07 01:09:00,42.2,22.4,29.73,WSW,244,16.0,21.0,45,0.00,CLR,CLR,0.00,WeatherDisplay:10.34,2013-03-07 08:09:00,
2013-03-07 01:14:00,42.0,21.6,29.73,WSW,241,17.0,21.0,44,0.00,CLR,CLR,0.00,WeatherDisplay:10.34,2013-03-07 08:14:00,
2013-03-07 01:19:00,41.7,20.8,29.73,WSW,249,14.0,15.0,43,0.00,CLR,CLR,0.00,WeatherDisplay:10.34,2013-03-07 08:19:00,
2013-03-07 01:24:00,41.6,20.2,29.73,WSW,250,21.0,24.0,42,0.00,CLR,CLR,0.00,WeatherDisplay:10.34,2013-03-07 08:24:00,
2013-03-07 01:29:00,41.7,19.7,29.73,SW,218,16.0,20.0,41,0.00,CLR,CLR,0.00,WeatherDisplay:10.34,2013-03-07 08:29:00,
2013-03-07 01:34:00,41.6,19.6,29.72,SSW,200,16.0,17.0,41,0.00,CLR,CLR,0.00,WeatherDisplay:10.34,2013-03-07 08:34:00,
2013-03-07 01:39:00,41.1,19.2,29.72,SW,222,14.0,15.0,41,0.00,CLR,CLR,0.00,WeatherDisplay:10.34,2013-03-07 08:39:00,
2013-03-07 01:44:00,40.6,19.3,29.72,SSW,213,17.0,17.0,42,0.00,CLR,CLR,0.00,WeatherDisplay:10.34,2013-03-07 08:44:00,
2013-03-07 01:49:00,40.1,18.3,29.72,SSW,213,15.0,15.0,41,0.00,CLR,CLR,0.00,WeatherDisplay:10.34,2013-03-07 08:49:00,
2013-03-07 01:54:00,39.5,17.1,29.72,SSW,205,12.0,13.0,40,0.00,CLR,CLR,0.00,WeatherDisplay:10.34,2013-03-07 08:54:00,
2013-03-07 01:59:00,39.6,16.6,29.71,SSW,193,24.0,24.0,39,0.00,CLR,CLR,0.00,WeatherDisplay:10.34,2013-03-07 08:59:00,
2013-03-07 02:04:00,39.7,16.7,29.72,SSW,198,19.0,20.0,39,0.00,CLR,CLR,0.00,WeatherDisplay:10.34,2013-03-07 09:04:00,
2013-03-07 02:09:00,39.4,16.5,29.72,SSW,200,17.0,17.0,39,0.00,CLR,CLR,0.00,WeatherDisplay:10.34,2013-03-07 09:09:00,
2013-03-07 02:14:00,39.2,16.3,29.73,SSW,207,17.0,17.0,39,0.00,CLR,CLR,0.00,WeatherDisplay:10.34,2013-03-07 09:14:00,
2013-03-07 02:19:00,39.1,16.8,29.73,SSW,207,17.0,17.0,40,0.00,CLR,CLR,0.00,WeatherDisplay:10.34,2013-03-07 09:19:00,
2013-03-07 02:24:00,39.0,16.7,29.73,SSW,207,15.0,15.0,40,0.00,CLR,CLR,0.00,WeatherDisplay:10.34,2013-03-07 09:24:00,
2013-03-07 02:29:00,38.8,16.5,29.73,SW,230,10.0,12.0,40,0.00,CLR,CLR,0.00,WeatherDisplay:10.34,2013-03-07 09:29:00,
2013-03-07 02:34:00,38.3,16.1,29.74,West,259,8.0,13.0,40,0.00,CLR,CLR,0.00,WeatherDisplay:10.34,2013-03-07 09:34:00,
2013-03-07 02:39:00,37.8,15.6,29.74,WSW,237,7.0,9.0,40,0.00,CLR,CLR,0.00,WeatherDisplay:10.34,2013-03-07 09:39:00,
2013-03-07 02:44:00,37.2,15.6,29.75,WSW,257,7.0,8.0,41,0.00,CLR,CLR,0.00,WeatherDisplay:10.34,2013-03-07 09:44:00,
2013-03-07 02:50:00,36.8,15.8,29.76,SW,230,11.0,14.0,42,0.00,CLR,CLR,0.00,WeatherDisplay:10.34,2013-03-07 09:50:00,
2013-03-07 02:55:00,36.6,15.6,29.76,SW,219,8.0,8.0,42,0.00,CLR,CLR,0.00,WeatherDisplay:10.34,2013-03-07 09:55:00,
2013-03-07 03:00:00,36.3,14.8,29.77,SW,232,7.0,7.0,41,0.00,CLR,CLR,0.00,WeatherDisplay:10.34,2013-03-07 10:00:00,
2013-03-07 03:05:00,35.8,14.4,29.77,WSW,237,8.0,8.0,41,0.00,CLR,CLR,0.00,WeatherDisplay:10.34,2013-03-07 10:05:00,
2013-03-07 03:10:00,35.4,14.0,29.77,SW,214,7.0,8.0,41,0.00,CLR,CLR,0.00,WeatherDisplay:10.34,2013-03-07 10:10:00,
2013-03-07 03:15:00,35.4,12.9,29.77,WSW,247,9.0,13.0,39,0.00,CLR,CLR,0.00,WeatherDisplay:10.34,2013-03-07 10:15:00,
2013-03-07 03:20:00,36.4,12.6,29.77,WSW,248,9.0,12.0,37,0.00,CLR,CLR,0.00,WeatherDisplay:10.34,2013-03-07 10:20:00,
2013-03-07 03:25:00,37.7,12.5,29.77,SW,217,9.0,10.0,35,0.00,CLR,CLR,0.00,WeatherDisplay:10.34,2013-03-07 10:25:00,
2013-03-07 03:30:00,38.7,12.7,29.78,WSW,240,13.0,14.0,34,0.00,CLR,CLR,0.00,WeatherDisplay:10.34,2013-03-07 10:30:00,
2013-03-07 03:35:00,39.2,12.5,29.78,SW,223,11.0,14.0,33,0.00,CLR,CLR,0.00,WeatherDisplay:10.34,2013-03-07 10:35:00,
2013-03-07 03:40:00,39.2,12.5,29.78,SW,229,22.0,22.0,33,0.00,CLR,CLR,0.00,WeatherDisplay:10.34,2013-03-07 10:40:00,
2013-03-07 03:45:00,39.5,12.7,29.78,WSW,246,24.0,29.0,33,0.00,CLR,CLR,0.00,WeatherDisplay:10.34,2013-03-07 10:45:00,
2013-03-07 03:50:00,39.7,12.2,29.78,SW,226,12.0,13.0,32,0.00,CLR,CLR,0.00,WeatherDisplay:10.34,2013-03-07 10:50:00,
2013-03-07 03:55:00,39.3,12.6,29.78,SW,221,14.0,14.0,33,0.00,CLR,CLR,0.00,WeatherDisplay:10.34,2013-03-07 10:55:00,
2013-03-07 04:00:00,38.9,12.2,29.80,WSW,237,12.0,16.0,33,0.00,CLR,CLR,0.00,WeatherDisplay:10.34,2013-03-07 11:00:00,
2013-03-07 04:05:00,38.6,12.6,29.80,SW,215,9.0,9.0,34,0.00,CLR,CLR,0.00,WeatherDisplay:10.34,2013-03-07 11:05:00,
2013-03-07 04:10:00,38.2,12.3,29.80,SW,215,2.0,5.0,34,0.00,CLR,CLR,0.00,WeatherDisplay:10.34,2013-03-07 11:10:00,
2013-03-07 04:16:00,37.7,11.8,29.80,West,279,2.0,5.0,34,0.00,CLR,CLR,0.00,WeatherDisplay:10.34,2013-03-07 11:16:00,
2013-03-07 04:21:00,37.3,11.5,29.81,West,279,2.0,2.0,34,0.00,CLR,CLR,0.00,WeatherDisplay:10.34,2013-03-07 11:21:00,
2013-03-07 04:26:00,37.1,11.9,29.81,WSW,254,6.0,7.0,35,0.00,CLR,CLR,0.00,WeatherDisplay:10.34,2013-03-07 11:26:00,
2013-03-07 04:31:00,37.0,11.8,29.81,WSW,248,1.0,2.0,35,0.00,CLR,CLR,0.00,WeatherDisplay:10.34,2013-03-07 11:31:00,
2013-03-07 04:36:00,36.6,11.5,29.81,SSW,194,6.0,9.0,35,0.00,CLR,CLR,0.00,WeatherDisplay:10.34,2013-03-07 11:36:00,
2013-03-07 04:41:00,36.0,11.0,29.81,SSW,208,10.0,12.0,35,0.00,CLR,CLR,0.00,WeatherDisplay:10.34,2013-03-07 11:41:00,
2013-03-07 04:46:00,35.5,10.5,29.81,SSW,212,12.0,12.0,35,0.00,CLR,CLR,0.00,WeatherDisplay:10.34,2013-03-07 11:46:00,
2013-03-07 04:51:00,35.7,11.3,29.81,SW,225,18.0,20.0,36,0.00,CLR,CLR,0.00,WeatherDisplay:10.34,2013-03-07 11:51:00,
2013-03-07 04:57:00,36.6,12.1,29.81,SW,229,18.0,21.0,36,0.00,CLR,CLR,0.00,WeatherDisplay:10.34,2013-03-07 11:57:00,
2013-03-07 05:02:00,37.1,12.6,29.81,WSW,238,19.0,19.0,36,0.00,CLR,CLR,0.00,WeatherDisplay:10.34,2013-03-07 12:02:00,
2013-03-07 05:07:00,37.2,12.7,29.82,SW,223,20.0,22.0,36,0.00,CLR,CLR,0.00,WeatherDisplay:10.34,2013-03-07 12:07:00,
2013-03-07 05:12:00,37.2,13.3,29.81,SSW,210,23.0,23.0,37,0.00,CLR,CLR,0.00,WeatherDisplay:10.34,2013-03-07 12:12:00,
2013-03-07 05:17:00,37.3,13.4,29.81,SW,236,19.0,22.0,37,0.00,CLR,CLR,0.00,WeatherDisplay:10.34,2013-03-07 12:17:00,
2013-03-07 05:22:00,37.4,13.5,29.80,SW,234,24.0,26.0,37,0.00,CLR,CLR,0.00,WeatherDisplay:10.34,2013-03-07 12:22:00,
2013-03-07 05:27:00,37.6,13.6,29.80,SW,230,23.0,23.0,37,0.00,CLR,CLR,0.00,WeatherDisplay:10.34,2013-03-07 12:27:00,
2013-03-07 05:32:00,37.7,13.7,29.81,WSW,238,18.0,18.0,37,0.00,CLR,CLR,0.00,WeatherDisplay:10.34,2013-03-07 12:32:00,
2013-03-07 05:37:00,37.6,13.6,29.81,WSW,240,16.0,17.0,37,0.00,CLR,CLR,0.00,WeatherDisplay:10.34,2013-03-07 12:37:00,
2013-03-07 05:42:00,37.4,14.1,29.81,WSW,252,14.0,16.0,38,0.00,CLR,CLR,0.00,WeatherDisplay:10.34,2013-03-07 12:42:00,
2013-03-07 05:47:00,37.2,13.9,29.81,WSW,254,7.0,8.0,38,0.00,CLR,CLR,0.00,WeatherDisplay:10.34,2013-03-07 12:47:00,
2013-03-07 05:52:00,36.8,13.5,29.82,SW,233,17.0,17.0,38,0.00,CLR,CLR,0.00,WeatherDisplay:10.34,2013-03-07 12:52:00,
2013-03-07 05:58:00,36.6,13.9,29.82,WSW,242,12.0,13.0,39,0.00,CLR,CLR,0.00,WeatherDisplay:10.34,2013-03-07 12:58:00,
2013-03-07 06:03:00,36.3,13.7,29.83,SW,225,7.0,9.0,39,0.00,OVC,OVC,0.00,WeatherDisplay:10.34,2013-03-07 13:03:00,
2013-03-07 06:08:00,36.0,13.4,29.83,WSW,252,4.0,7.0,39,0.00,OVC,OVC,0.00,WeatherDisplay:10.34,2013-03-07 13:08:00,
2013-03-07 06:13:00,35.6,13.0,29.83,South,177,4.0,4.0,39,0.00,OVC,OVC,0.00,WeatherDisplay:10.34,2013-03-07 13:13:00,
2013-03-07 06:18:00,34.4,13.1,29.83,SSW,206,9.0,9.0,41,0.00,OVC,OVC,0.00,WeatherDisplay:10.34,2013-03-07 13:18:00,
2013-03-07 06:23:00,33.4,12.2,29.83,South,174,13.0,13.0,41,0.00,OVC,OVC,0.00,WeatherDisplay:10.34,2013-03-07 13:23:00,
2013-03-07 06:28:00,33.6,13.5,29.83,SSW,207,13.0,13.0,43,0.00,OVC,OVC,0.00,WeatherDisplay:10.34,2013-03-07 13:28:00,
2013-03-07 06:33:00,33.2,12.6,29.84,South,187,14.0,14.0,42,0.00,OVC,OVC,0.00,WeatherDisplay:10.34,2013-03-07 13:33:00,
2013-03-07 06:38:00,32.3,12.8,29.83,SSW,200,12.0,13.0,44,0.00,OVC,OVC,0.00,WeatherDisplay:10.34,2013-03-07 13:38:00,
2013-03-07 06:43:00,32.6,13.6,29.83,SSW,203,18.0,18.0,45,0.00,OVC,OVC,0.00,WeatherDisplay:10.34,2013-03-07 13:43:00,
2013-03-07 06:48:00,33.7,14.1,29.83,SSW,210,14.0,17.0,44,0.00,OVC,OVC,0.00,WeatherDisplay:10.34,2013-03-07 13:48:00,
2013-03-07 06:53:00,34.1,13.9,29.85,SW,214,17.0,17.0,43,0.00,CLR,CLR,0.00,WeatherDisplay:10.34,2013-03-07 13:53:00,
2013-03-07 06:58:00,34.4,14.2,29.85,SW,224,15.0,20.0,43,0.00,FEW,FEW,0.00,WeatherDisplay:10.34,2013-03-07 13:58:00,
2013-03-07 07:03:00,34.9,14.1,29.85,SW,214,13.0,13.0,42,0.00,SCT,SCT,0.00,WeatherDisplay:10.34,2013-03-07 14:03:00,
2013-03-07 07:08:00,34.4,13.6,29.85,SSW,203,12.0,12.0,42,0.00,FEW,FEW,0.00,WeatherDisplay:10.34,2013-03-07 14:08:00,
2013-03-07 07:13:00,34.4,13.6,29.85,SSW,195,18.0,21.0,42,0.00,CLR,CLR,0.00,WeatherDisplay:10.34,2013-03-07 14:13:00,
2013-03-07 07:18:00,35.7,13.7,29.85,SW,218,19.0,20.0,40,0.00,SCT,SCT,0.00,WeatherDisplay:10.34,2013-03-07 14:18:00,
2013-03-07 07:23:00,36.2,13.6,29.85,SW,225,17.0,17.0,39,0.00,BKN,BKN,0.00,WeatherDisplay:10.34,2013-03-07 14:23:00,
2013-03-07 07:28:00,36.1,13.5,29.85,SW,218,18.0,18.0,39,0.00,FEW,FEW,0.00,WeatherDisplay:10.34,2013-03-07 14:28:00,
2013-03-07 07:33:00,36.5,13.3,29.85,SSW,207,20.0,20.0,38,0.00,CLR,CLR,0.00,WeatherDisplay:10.34,2013-03-07 14:33:00,
2013-03-07 07:38:00,36.6,13.4,29.85,SW,219,14.0,15.0,38,0.00,CLR,CLR,0.00,WeatherDisplay:10.34,2013-03-07 14:38:00,
2013-03-07 07:43:00,36.7,13.4,29.85,SW,223,13.0,14.0,38,0.00,SCT,SCT,0.00,WeatherDisplay:10.34,2013-03-07 14:43:00,
2013-03-07 07:48:00,36.9,13.6,29.85,SSW,209,13.0,15.0,38,0.00,CLR,CLR,0.00,WeatherDisplay:10.34,2013-03-07 14:48:00,
2013-03-07 07:53:00,37.4,14.1,29.86,SW,221,16.0,16.0,38,0.00,CLR,CLR,0.00,WeatherDisplay:10.34,2013-03-07 14:53:00,
2013-03-07 07:58:00,38.1,14.1,29.87,WSW,241,8.0,8.0,37,0.00,CLR,CLR,0.00,WeatherDisplay:10.34,2013-03-07 14:58:00,
2013-03-07 08:05:00,38.9,14.8,29.87,SW,227,10.0,10.0,37,0.00,CLR,CLR,0.00,WeatherDisplay:10.34,2013-03-07 15:05:00,
2013-03-07 08:10:00,39.5,14.7,29.87,SW,233,5.0,5.0,36,0.00,CLR,CLR,0.00,WeatherDisplay:10.34,2013-03-07 15:10:00,
2013-03-07 08:15:00,40.2,15.3,29.87,SW,225,3.0,7.0,36,0.00,CLR,CLR,0.00,WeatherDisplay:10.34,2013-03-07 15:15:00,
2013-03-07 08:20:00,40.9,15.3,29.87,SSW,211,10.0,14.0,35,0.00,CLR,CLR,0.00,WeatherDisplay:10.34,2013-03-07 15:20:00,
2013-03-07 08:25:00,41.6,15.3,29.87,SW,236,9.0,12.0,34,0.00,CLR,CLR,0.00,WeatherDisplay:10.34,2013-03-07 15:25:00,
2013-03-07 08:30:00,42.0,14.9,29.87,WSW,238,11.0,14.0,33,0.00,CLR,CLR,0.00,WeatherDisplay:10.34,2013-03-07 15:30:00,
2013-03-07 08:35:00,42.3,15.2,29.87,SW,222,18.0,21.0,33,0.00,CLR,CLR,0.00,WeatherDisplay:10.34,2013-03-07 15:35:00,
2013-03-07 08:40:00,42.2,15.1,29.87,SW,226,14.0,16.0,33,0.00,CLR,CLR,0.00,WeatherDisplay:10.34,2013-03-07 15:40:00,
2013-03-07 08:45:00,42.2,15.1,29.87,WSW,246,14.0,16.0,33,0.00,CLR,CLR,0.00,WeatherDisplay:10.34,2013-03-07 15:45:00,
2013-03-07 08:50:00,42.3,15.2,29.86,SW,227,11.0,13.0,33,0.00,CLR,CLR,0.00,WeatherDisplay:10.34,2013-03-07 15:50:00,
2013-03-07 08:55:00,42.5,14.7,29.86,SW,215,19.0,21.0,32,0.00,CLR,CLR,0.00,WeatherDisplay:10.34,2013-03-07 15:55:00,
2013-03-07 09:00:00,42.5,13.9,29.86,SW,225,24.0,24.0,31,0.00,FEW,FEW,0.00,WeatherDisplay:10.34,2013-03-07 16:00:00,
2013-03-07 09:05:00,42.5,14.7,29.86,SW,236,16.0,16.0,32,0.00,FEW,FEW,0.00,WeatherDisplay:10.34,2013-03-07 16:05:00,
2013-03-07 09:10:00,42.6,14.0,29.87,SW,235,17.0,20.0,31,0.00,FEW,FEW,0.00,WeatherDisplay:10.34,2013-03-07 16:10:00,
2013-03-07 09:15:00,42.7,14.1,29.87,WSW,247,17.0,17.0,31,0.00,CLR,CLR,0.00,WeatherDisplay:10.34,2013-03-07 16:15:00,
2013-03-07 09:20:00,43.0,14.4,29.87,WSW,237,18.0,18.0,31,0.00,CLR,CLR,0.00,WeatherDisplay:10.34,2013-03-07 16:20:00,
2013-03-07 09:25:00,43.4,14.7,29.87,SW,234,17.0,22.0,31,0.00,CLR,CLR,0.00,WeatherDisplay:10.34,2013-03-07 16:25:00,
2013-03-07 09:30:00,43.6,14.2,29.87,WSW,238,16.0,17.0,30,0.00,CLR,CLR,0.00,WeatherDisplay:10.34,2013-03-07 16:30:00,
2013-03-07 09:35:00,44.0,13.7,29.86,SW,234,14.0,16.0,29,0.00,CLR,CLR,0.00,WeatherDisplay:10.34,2013-03-07 16:35:00,
2013-03-07 09:40:00,44.3,14.0,29.86,SW,236,19.0,22.0,29,0.00,CLR,CLR,0.00,WeatherDisplay:10.34,2013-03-07 16:40:00,
2013-03-07 09:45:00,44.6,14.3,29.86,West,276,17.0,20.0,29,0.00,CLR,CLR,0.00,WeatherDisplay:10.34,2013-03-07 16:45:00,
2013-03-07 09:50:00,45.0,13.8,29.86,West,261,17.0,20.0,28,0.00,CLR,CLR,0.00,WeatherDisplay:10.34,2013-03-07 16:50:00,
2013-03-07 09:55:00,45.2,14.0,29.86,SW,235,18.0,18.0,28,0.00,CLR,CLR,0.00,WeatherDisplay:10.34,2013-03-07 16:55:00,
2013-03-07 10:00:00,45.7,14.4,29.86,SW,228,21.0,21.0,28,0.00,CLR,CLR,0.00,WeatherDisplay:10.34,2013-03-07 17:00:00,
2013-03-07 10:05:00,46.2,14.0,29.86,WSW,256,16.0,21.0,27,0.00,CLR,CLR,0.00,WeatherDisplay:10.34,2013-03-07 17:05:00,
2013-03-07 10:10:00,46.4,13.3,29.87,SW,233,21.0,22.0,26,0.00,CLR,CLR,0.00,WeatherDisplay:10.34,2013-03-07 17:10:00,
2013-03-07 10:15:00,46.6,11.7,29.87,WSW,243,18.0,20.0,24,0.00,CLR,CLR,0.00,WeatherDisplay:10.34,2013-03-07 17:15:00,
2013-03-07 10:20:00,47.0,14.7,29.87,SW,232,20.0,22.0,27,0.00,CLR,CLR,0.00,WeatherDisplay:10.34,2013-03-07 17:20:00,
2013-03-07 10:26:00,47.1,13.0,29.87,SW,234,16.0,17.0,25,0.00,CLR,CLR,0.00,WeatherDisplay:10.34,2013-03-07 17:26:00,
2013-03-07 10:31:00,46.8,12.8,29.87,SW,222,17.0,21.0,25,0.00,CLR,CLR,0.00,WeatherDisplay:10.34,2013-03-07 17:31:00,
2013-03-07 10:36:00,46.9,13.7,29.87,WSW,245,18.0,21.0,26,0.00,CLR,CLR,0.00,WeatherDisplay:10.34,2013-03-07 17:36:00,
2013-03-07 10:41:00,47.4,14.2,29.87,SW,234,15.0,15.0,26,0.00,CLR,CLR,0.00,WeatherDisplay:10.34,2013-03-07 17:41:00,
2013-03-07 10:46:00,48.2,13.0,29.87,SW,222,17.0,17.0,24,0.00,CLR,CLR,0.00,WeatherDisplay:10.34,2013-03-07 17:46:00,
2013-03-07 10:51:00,48.7,13.5,29.88,SW,229,15.0,15.0,24,0.00,FEW,FEW,0.00,WeatherDisplay:10.34,2013-03-07 17:51:00,
2013-03-07 10:56:00,49.0,12.7,29.88,WSW,257,12.0,12.0,23,0.00,FEW,FEW,0.00,WeatherDisplay:10.34,2013-03-07 17:56:00,
2013-03-07 11:01:00,49.2,11.9,29.88,WSW,248,8.0,13.0,22,0.00,FEW,FEW,0.00,WeatherDisplay:10.34,2013-03-07 18:01:00,
2013-03-07 11:07:00,49.2,13.9,29.88,WSW,241,8.0,15.0,24,0.00,CLR,CLR,0.00,WeatherDisplay:10.34,2013-03-07 18:07:00,
2013-03-07 11:12:00,49.4,13.1,29.88,SW,231,13.0,15.0,23,0.00,CLR,CLR,0.00,WeatherDisplay:10.34,2013-03-07 18:12:00,
2013-03-07 11:17:00,49.4,12.1,29.88,SW,223,9.0,10.0,22,0.00,FEW,FEW,0.00,WeatherDisplay:10.34,2013-03-07 18:17:00,
2013-03-07 11:22:00,49.6,12.2,29.88,West,263,9.0,12.0,22,0.00,CLR,CLR,0.00,WeatherDisplay:10.34,2013-03-07 18:22:00,
2013-03-07 11:27:00,50.1,12.7,29.88,SW,229,7.0,8.0,22,0.00,CLR,CLR,0.00,WeatherDisplay:10.34,2013-03-07 18:27:00,
2013-03-07 11:32:00,50.9,13.3,29.88,WSW,240,10.0,10.0,22,0.00,CLR,CLR,0.00,WeatherDisplay:10.34,2013-03-07 18:32:00,
2013-03-07 11:37:00,51.3,12.6,29.88,West,274,7.0,7.0,21,0.00,CLR,CLR,0.00,WeatherDisplay:10.34,2013-03-07 18:37:00,
2013-03-07 11:42:00,51.5,12.8,29.88,WSW,240,6.0,10.0,21,0.00,CLR,CLR,0.00,WeatherDisplay:10.34,2013-03-07 18:42:00,
2013-03-07 11:48:00,51.7,13.0,29.88,South,179,10.0,10.0,21,0.00,CLR,CLR,0.00,WeatherDisplay:10.34,2013-03-07 18:48:00,
2013-03-07 11:53:00,51.1,13.5,29.88,South,186,12.0,12.0,22,0.00,CLR,CLR,0.00,WeatherDisplay:10.34,2013-03-07 18:53:00,
2013-03-07 11:58:00,50.8,13.3,29.88,SW,222,9.0,13.0,22,0.00,SCT,SCT,0.00,WeatherDisplay:10.34,2013-03-07 18:58:00,
2013-03-07 12:03:00,50.9,13.3,29.88,SW,234,12.0,13.0,22,0.00,SCT,SCT,0.00,WeatherDisplay:10.34,2013-03-07 19:03:00,
2013-03-07 12:08:00,51.2,13.6,29.88,WSW,237,14.0,14.0,22,0.00,CLR,CLR,0.00,WeatherDisplay:10.34,2013-03-07 19:08:00,
2013-03-07 12:13:00,51.7,14.0,29.88,SW,215,18.0,18.0,22,0.00,CLR,CLR,0.00,WeatherDisplay:10.34,2013-03-07 19:13:00,
2013-03-07 12:18:00,52.4,14.6,29.88,SW,218,11.0,11.0,22,0.00,CLR,CLR,0.00,WeatherDisplay:10.34,2013-03-07 19:18:00,
2013-03-07 12:23:00,53.3,15.4,29.88,WSW,252,8.0,9.0,22,0.00,CLR,CLR,0.00,WeatherDisplay:10.34,2013-03-07 19:23:00,
2013-03-07 12:28:00,53.8,14.7,29.88,SW,227,17.0,17.0,21,0.00,CLR,CLR,0.00,WeatherDisplay:10.34,2013-03-07 19:28:00,
2013-03-07 12:33:00,52.9,14.0,29.88,SSW,211,12.0,14.0,21,0.00,CLR,CLR,0.00,WeatherDisplay:10.34,2013-03-07 19:33:00,
2013-03-07 12:38:00,52.3,13.5,29.88,South,178,6.0,7.0,21,0.00,SCT,SCT,0.00,WeatherDisplay:10.34,2013-03-07 19:38:00,
2013-03-07 12:43:00,52.1,14.4,29.87,SSW,197,9.0,9.0,22,0.00,CLR,CLR,0.00,WeatherDisplay:10.34,2013-03-07 19:43:00,
2013-03-07 12:48:00,52.2,13.4,29.87,SSW,205,9.0,12.0,21,0.00,FEW,FEW,0.00,WeatherDisplay:10.34,2013-03-07 19:48:00,
2013-03-07 12:53:00,52.2,14.4,29.87,SW,225,7.0,10.0,22,0.00,CLR,CLR,0.00,WeatherDisplay:10.34,2013-03-07 19:53:00,
2013-03-07 12:58:00,52.5,13.6,29.87,NW,307,2.0,2.0,21,0.00,FEW,FEW,0.00,WeatherDisplay:10.34,2013-03-07 19:58:00,
2013-03-07 13:03:00,52.7,13.8,29.87,NW,306,9.0,9.0,21,0.00,CLR,CLR,0.00,WeatherDisplay:10.34,2013-03-07 20:03:00,
2013-03-07 13:08:00,52.7,13.8,29.87,SW,223,10.0,10.0,21,0.00,FEW,FEW,0.00,WeatherDisplay:10.34,2013-03-07 20:08:00,
2013-03-07 13:13:00,52.7,13.8,29.86,SSW,194,9.0,12.0,21,0.00,SCT,SCT,0.00,WeatherDisplay:10.34,2013-03-07 20:13:00,
2013-03-07 13:18:00,52.5,13.6,29.86,SW,223,8.0,8.0,21,0.00,CLR,CLR,0.00,WeatherDisplay:10.34,2013-03-07 20:18:00,
2013-03-07 13:23:00,52.9,14.0,29.86,SSW,202,6.0,9.0,21,0.00,CLR,CLR,0.00,WeatherDisplay:10.34,2013-03-07 20:23:00,
2013-03-07 13:28:00,53.3,13.2,29.86,South,189,5.0,7.0,20,0.00,CLR,CLR,0.00,WeatherDisplay:10.34,2013-03-07 20:28:00,
2013-03-07 13:33:00,53.8,13.6,29.85,SW,230,11.0,11.0,20,0.00,CLR,CLR,0.00,WeatherDisplay:10.34,2013-03-07 20:33:00,
2013-03-07 13:38:00,53.6,13.4,29.85,SW,232,8.0,12.0,20,0.00,SCT,SCT,0.00,WeatherDisplay:10.34,2013-03-07 20:38:00,
2013-03-07 13:43:00,53.2,13.1,29.85,South,180,11.0,11.0,20,0.00,FEW,FEW,0.00,WeatherDisplay:10.34,2013-03-07 20:43:00,
2013-03-07 13:48:00,52.9,14.0,29.85,SW,220,8.0,10.0,21,0.00,CLR,CLR,0.00,WeatherDisplay:10.34,2013-03-07 20:48:00,
2013-03-07 13:53:00,53.1,14.1,29.85,SW,227,1.0,3.0,21,0.00,CLR,CLR,0.00,WeatherDisplay:10.34,2013-03-07 20:53:00,
2013-03-07 13:58:00,52.9,14.0,29.85,WSW,242,5.0,5.0,21,0.00,CLR,CLR,0.00,WeatherDisplay:10.34,2013-03-07 20:58:00,
2013-03-07 14:03:00,53.2,14.2,29.85,SSW,196,2.0,3.0,21,0.00,CLR,CLR,0.00,WeatherDisplay:10.34,2013-03-07 21:03:00,
2013-03-07 14:08:00,53.8,14.7,29.85,SSE,161,7.0,7.0,21,0.00,CLR,CLR,0.00,WeatherDisplay:10.34,2013-03-07 21:08:00,
2013-03-07 14:13:00,53.9,14.8,29.84,ESE,109,7.0,9.0,21,0.00,CLR,CLR,0.00,WeatherDisplay:10.34,2013-03-07 21:13:00,
2013-03-07 14:18:00,54.4,15.2,29.84,ENE,69,4.0,5.0,21,0.00,CLR,CLR,0.00,WeatherDisplay:10.34,2013-03-07 21:18:00,
2013-03-07 14:23:00,54.5,14.2,29.84,ESE,111,9.0,12.0,20,0.00,CLR,CLR,0.00,WeatherDisplay:10.34,2013-03-07 21:23:00,
2013-03-07 14:28:00,54.4,15.2,29.84,SE,134,8.0,9.0,21,0.00,CLR,CLR,0.00,WeatherDisplay:10.34,2013-03-07 21:28:00,
2013-03-07 14:33:00,54.0,14.9,29.84,SSE,159,4.0,5.0,21,0.00,FEW,FEW,0.00,WeatherDisplay:10.34,2013-03-07 21:33:00,
2013-03-07 14:38:00,53.2,14.2,29.84,SSW,200,5.0,7.0,21,0.00,CLR,CLR,0.00,WeatherDisplay:10.34,2013-03-07 21:38:00,
2013-03-07 14:43:00,53.1,15.2,29.84,East,101,11.0,12.0,22,0.00,CLR,CLR,0.00,WeatherDisplay:10.34,2013-03-07 21:43:00,
2013-03-07 14:48:00,53.6,14.5,29.84,East,80,0.0,1.0,21,0.00,CLR,CLR,0.00,WeatherDisplay:10.34,2013-03-07 21:48:00,
2013-03-07 14:53:00,54.0,14.9,29.84,NNW,338,1.0,1.0,21,0.00,CLR,CLR,0.00,WeatherDisplay:10.34,2013-03-07 21:53:00,
2013-03-07 14:58:00,54.4,16.3,29.84,ENE,60,11.0,12.0,22,0.00,CLR,CLR,0.00,WeatherDisplay:10.34,2013-03-07 21:58:00,
2013-03-07 15:03:00,53.8,16.8,29.84,NNE,23,8.0,9.0,23,0.00,CLR,CLR,0.00,WeatherDisplay:10.34,2013-03-07 22:03:00,
2013-03-07 15:08:00,53.5,16.6,29.84,NNE,13,9.0,10.0,23,0.00,CLR,CLR,0.00,WeatherDisplay:10.34,2013-03-07 22:08:00,
2013-03-07 15:14:00,53.5,16.6,29.84,NNE,28,10.0,12.0,23,0.00,CLR,CLR,0.00,WeatherDisplay:10.34,2013-03-07 22:14:00,
2013-03-07 15:19:00,52.8,16.9,29.84,NNE,26,8.0,12.0,24,0.00,CLR,CLR,0.00,WeatherDisplay:10.34,2013-03-07 22:19:00,
2013-03-07 15:24:00,52.6,17.7,29.85,NNE,27,13.0,13.0,25,0.00,CLR,CLR,0.00,WeatherDisplay:10.34,2013-03-07 22:24:00,
2013-03-07 15:29:00,52.9,18.0,29.84,ENE,63,16.0,16.0,25,0.00,CLR,CLR,0.00,WeatherDisplay:10.34,2013-03-07 22:29:00,
2013-03-07 15:34:00,52.9,18.0,29.84,ENE,67,14.0,14.0,25,0.00,CLR,CLR,0.00,WeatherDisplay:10.34,2013-03-07 22:34:00,
2013-03-07 15:39:00,51.9,18.0,29.84,NE,52,20.0,20.0,26,0.00,CLR,CLR,0.00,WeatherDisplay:10.34,2013-03-07 22:39:00,
2013-03-07 15:44:00,51.2,18.3,29.84,NE,48,18.0,21.0,27,0.00,CLR,CLR,0.00,WeatherDisplay:10.34,2013-03-07 22:44:00,
2013-03-07 15:49:00,51.0,18.1,29.84,ENE,68,11.0,0.0,27,0.00,CLR,CLR,0.00,WeatherDisplay:10.34,2013-03-07 22:49:00,
2013-03-07 15:54:00,51.3,18.4,29.84,ENE,72,16.0,16.0,27,0.00,CLR,CLR,0.00,WeatherDisplay:10.34,2013-03-07 22:54:00,
2013-03-07 15:59:00,51.2,18.3,29.84,NE,42,16.0,16.0,27,0.00,CLR,CLR,0.00,WeatherDisplay:10.34,2013-03-07 22:59:00,
2013-03-07 16:04:00,51.0,18.1,29.84,ENE,74,17.0,17.0,27,0.00,CLR,CLR,0.00,WeatherDisplay:10.34,2013-03-07 23:04:00,
2013-03-07 16:09:00,51.0,18.1,29.84,ENE,75,13.0,0.0,27,0.00,CLR,CLR,0.00,WeatherDisplay:10.34,2013-03-07 23:09:00,
2013-03-07 16:14:00,50.9,18.1,29.84,NE,51,12.0,13.0,27,0.00,FEW,FEW,0.00,WeatherDisplay:10.34,2013-03-07 23:14:00,
2013-03-07 16:19:00,50.6,17.8,29.85,NE,52,13.0,13.0,27,0.00,SCT,SCT,0.00,WeatherDisplay:10.34,2013-03-07 23:19:00,
2013-03-07 16:24:00,50.0,18.1,29.85,ENE,72,12.0,12.0,28,0.00,SCT,SCT,0.00,WeatherDisplay:10.34,2013-03-07 23:24:00,
2013-03-07 16:29:00,49.7,17.9,29.86,East,84,13.0,13.0,28,0.00,SCT,SCT,0.00,WeatherDisplay:10.34,2013-03-07 23:29:00,
2013-03-07 16:34:00,49.3,17.5,29.86,ESE,112,12.0,12.0,28,0.00,SCT,SCT,0.00,WeatherDisplay:10.34,2013-03-07 23:34:00,
2013-03-07 16:39:00,49.2,17.4,29.86,ENE,62,9.0,0.0,28,0.00,SCT,SCT,0.00,WeatherDisplay:10.34,2013-03-07 23:39:00,
2013-03-07 16:44:00,49.0,17.3,29.86,ESE,105,13.0,13.0,28,0.00,SCT,SCT,0.00,WeatherDisplay:10.34,2013-03-07 23:44:00,
2013-03-07 16:49:00,48.9,17.2,29.86,ENE,71,8.0,0.0,28,0.00,SCT,SCT,0.00,WeatherDisplay:10.34,2013-03-07 23:49:00,
2013-03-07 16:54:00,48.7,17.0,29.86,East,88,11.0,12.0,28,0.00,FEW,FEW,0.00,WeatherDisplay:10.34,2013-03-07 23:54:00,
2013-03-07 16:59:00,48.5,16.8,29.86,East,91,5.0,8.0,28,0.00,SCT,SCT,0.00,WeatherDisplay:10.34,2013-03-07 23:59:00,
2013-03-07 17:04:00,48.3,16.7,29.86,East,80,15.0,15.0,28,0.00,SCT,SCT,0.00,WeatherDisplay:10.34,2013-03-08 00:04:00,
2013-03-07 17:09:00,48.1,16.5,29.87,ENE,69,11.0,11.0,28,0.00,SCT,SCT,0.00,WeatherDisplay:10.34,2013-03-08 00:09:00,
2013-03-07 17:14:00,47.9,16.3,29.87,East,88,8.0,8.0,28,0.00,SCT,SCT,0.00,WeatherDisplay:10.34,2013-03-08 00:14:00,
2013-03-07 17:19:00,47.7,16.1,29.87,East,86,10.0,10.0,28,0.00,FEW,FEW,0.00,WeatherDisplay:10.34,2013-03-08 00:19:00,
2013-03-07 17:24:00,47.6,16.9,29.87,East,79,7.0,9.0,29,0.00,FEW,FEW,0.00,WeatherDisplay:10.34,2013-03-08 00:24:00,
2013-03-07 17:29:00,47.4,15.9,29.87,East,82,6.0,6.0,28,0.00,FEW,FEW,0.00,WeatherDisplay:10.34,2013-03-08 00:29:00,
2013-03-07 17:34:00,47.3,15.8,29.88,East,92,10.0,10.0,28,0.00,FEW,FEW,0.00,WeatherDisplay:10.34,2013-03-08 00:34:00,
2013-03-07 17:39:00,47.1,16.4,29.88,ENE,71,5.0,5.0,29,0.00,CLR,CLR,0.00,WeatherDisplay:10.34,2013-03-08 00:39:00,
2013-03-07 17:44:00,46.9,16.3,29.88,ENE,74,8.0,9.0,29,0.00,CLR,CLR,0.00,WeatherDisplay:10.34,2013-03-08 00:44:00,
2013-03-07 17:49:00,46.8,16.2,29.88,ENE,74,7.0,7.0,29,0.00,CLR,CLR,0.00,WeatherDisplay:10.34,2013-03-08 00:49:00,
2013-03-07 17:54:00,46.7,16.1,29.88,ENE,75,5.0,9.0,29,0.00,CLR,CLR,0.00,WeatherDisplay:10.34,2013-03-08 00:54:00,
2013-03-07 17:59:00,46.5,15.9,29.88,ENE,65,3.0,3.0,29,0.00,OVC,OVC,0.00,WeatherDisplay:10.34,2013-03-08 00:59:00,
2013-03-07 18:05:00,46.3,15.7,29.88,ENE,76,3.0,7.0,29,0.00,OVC,OVC,0.00,WeatherDisplay:10.34,2013-03-08 01:05:00,
2013-03-07 18:10:00,46.1,15.6,29.88,ENE,76,4.0,4.0,29,0.00,OVC,OVC,0.00,WeatherDisplay:10.34,2013-03-08 01:10:00,
2013-03-07 18:15:00,45.9,16.2,29.88,East,84,4.0,4.0,30,0.00,OVC,OVC,0.00,WeatherDisplay:10.34,2013-03-08 01:15:00,
2013-03-07 18:20:00,45.7,16.0,29.89,ENE,67,3.0,3.0,30,0.00,OVC,OVC,0.00,WeatherDisplay:10.34,2013-03-08 01:20:00,
2013-03-07 18:25:00,45.5,15.8,29.89,ENE,71,3.0,3.0,30,0.00,OVC,OVC,0.00,WeatherDisplay:10.34,2013-03-08 01:25:00,
2013-03-07 18:30:00,45.3,15.6,29.89,ENE,71,2.0,2.0,30,0.00,OVC,OVC,0.00,WeatherDisplay:10.34,2013-03-08 01:30:00,
2013-03-07 18:35:00,45.0,15.4,29.89,ENE,71,2.0,2.0,30,0.00,OVC,OVC,0.00,WeatherDisplay:10.34,2013-03-08 01:35:00,
2013-03-07 18:40:00,44.9,15.3,29.89,ENE,71,2.0,2.0,30,0.00,OVC,OVC,0.00,WeatherDisplay:10.34,2013-03-08 01:40:00,
2013-03-07 18:45:00,44.7,15.1,29.89,ENE,71,2.0,2.0,30,0.00,OVC,OVC,0.00,WeatherDisplay:10.34,2013-03-08 01:45:00,
2013-03-07 18:50:00,44.4,15.6,29.90,NE,51,5.0,5.0,31,0.00,OVC,OVC,0.00,WeatherDisplay:10.34,2013-03-08 01:50:00,
2013-03-07 18:55:00,44.2,15.4,29.90,NE,34,3.0,3.0,31,0.00,OVC,OVC,0.00,WeatherDisplay:10.34,2013-03-08 01:55:00,
2013-03-07 19:00:00,43.8,15.8,29.90,NE,45,2.0,2.0,32,0.00,CLR,CLR,0.00,WeatherDisplay:10.34,2013-03-08 02:00:00,
2013-03-07 19:05:00,43.7,15.7,29.90,NE,45,0.0,0.0,32,0.00,CLR,CLR,0.00,WeatherDisplay:10.34,2013-03-08 02:05:00,
2013-03-07 19:10:00,43.5,16.3,29.90,East,98,1.0,1.0,33,0.00,CLR,CLR,0.00,WeatherDisplay:10.34,2013-03-08 02:10:00,
2013-03-07 19:15:00,43.4,16.9,29.90,NE,44,2.0,2.0,34,0.00,CLR,CLR,0.00,WeatherDisplay:10.34,2013-03-08 02:15:00,
2013-03-07 19:20:00,43.2,17.4,29.90,ENE,59,4.0,4.0,35,0.00,CLR,CLR,0.00,WeatherDisplay:10.34,2013-03-08 02:20:00,
2013-03-07 19:26:00,43.0,17.2,29.90,NE,34,3.0,3.0,35,0.00,CLR,CLR,0.00,WeatherDisplay:10.34,2013-03-08 02:26:00,
2013-03-07 19:31:00,42.5,16.1,29.90,NNE,15,3.0,3.0,34,0.00,CLR,CLR,0.00,WeatherDisplay:10.34,2013-03-08 02:31:00,
2013-03-07 19:36:00,42.0,16.3,29.90,NNE,15,1.0,2.0,35,0.00,CLR,CLR,0.00,WeatherDisplay:10.34,2013-03-08 02:36:00,
2013-03-07 19:41:00,41.6,15.9,29.90,NNE,15,0.0,0.0,35,0.00,CLR,CLR,0.00,WeatherDisplay:10.34,2013-03-08 02:41:00,
2013-03-07 19:46:00,41.4,16.4,29.90,NNE,15,1.0,2.0,36,0.00,CLR,CLR,0.00,WeatherDisplay:10.34,2013-03-08 02:46:00,
2013-03-07 19:51:00,41.0,16.0,29.90,NNE,15,0.0,0.0,36,0.00,CLR,CLR,0.00,WeatherDisplay:10.34,2013-03-08 02:51:00,
2013-03-07 19:56:00,40.5,15.6,29.90,NNE,15,0.0,1.0,36,0.00,CLR,CLR,0.00,WeatherDisplay:10.34,2013-03-08 02:56:00,
2013-03-07 20:02:00,39.8,15.6,29.90,NNE,15,0.0,1.0,37,0.00,CLR,CLR,0.00,WeatherDisplay:10.34,2013-03-08 03:02:00,
2013-03-07 20:07:00,39.4,15.9,29.90,NNE,14,1.0,1.0,38,0.00,CLR,CLR,0.00,WeatherDisplay:10.34,2013-03-08 03:07:00,
2013-03-07 20:12:00,39.2,15.7,29.90,NNE,15,0.0,1.0,38,0.00,CLR,CLR,0.00,WeatherDisplay:10.34,2013-03-08 03:12:00,
2013-03-07 20:17:00,39.1,15.6,29.90,NNE,14,0.0,0.0,38,0.00,CLR,CLR,0.00,WeatherDisplay:10.34,2013-03-08 03:17:00,
2013-03-07 20:22:00,39.0,16.1,29.90,NNE,15,0.0,0.0,39,0.00,CLR,CLR,0.00,WeatherDisplay:10.34,2013-03-08 03:22:00,
2013-03-07 20:27:00,38.9,15.4,29.90,NNE,14,0.0,0.0,38,0.00,CLR,CLR,0.00,WeatherDisplay:10.34,2013-03-08 03:27:00,
2013-03-07 20:32:00,38.5,13.2,29.90,SSW,196,8.0,8.0,35,0.00,CLR,CLR,0.00,WeatherDisplay:10.34,2013-03-08 03:32:00,
2013-03-07 20:37:00,38.1,14.1,29.90,SSW,196,0.0,1.0,37,0.00,CLR,CLR,0.00,WeatherDisplay:10.34,2013-03-08 03:37:00,
2013-03-07 20:42:00,37.9,15.1,29.90,SSW,196,0.0,1.0,39,0.00,CLR,CLR,0.00,WeatherDisplay:10.34,2013-03-08 03:42:00,
2013-03-07 20:47:00,37.8,13.8,29.90,SSW,196,2.0,2.0,37,0.00,CLR,CLR,0.00,WeatherDisplay:10.34,2013-03-08 03:47:00,
2013-03-07 20:52:00,37.6,14.8,29.90,SSW,197,5.0,5.0,39,0.00,CLR,CLR,0.00,WeatherDisplay:10.34,2013-03-08 03:52:00,
2013-03-07 20:57:00,37.7,15.5,29.90,SSW,197,0.0,1.0,40,0.00,CLR,CLR,0.00,WeatherDisplay:10.34,2013-03-08 03:57:00,
2013-03-07 21:02:00,37.7,16.1,29.90,West,277,4.0,5.0,41,0.00,CLR,CLR,0.00,WeatherDisplay:10.34,2013-03-08 04:02:00,
2013-03-07 21:07:00,37.9,16.3,29.90,WNW,288,7.0,8.0,41,0.00,CLR,CLR,0.00,WeatherDisplay:10.34,2013-03-08 04:07:00,
2013-03-07 21:12:00,38.3,16.6,29.89,NW,309,2.0,5.0,41,0.00,CLR,CLR,0.00,WeatherDisplay:10.34,2013-03-08 04:12:00,
2013-03-07 21:17:00,38.4,16.7,29.89,WSW,251,6.0,8.0,41,0.00,CLR,CLR,0.00,WeatherDisplay:10.34,2013-03-08 04:17:00,
2013-03-07 21:22:00,38.5,15.7,29.89,WSW,241,5.0,5.0,39,0.00,CLR,CLR,0.00,WeatherDisplay:10.34,2013-03-08 04:22:00,
2013-03-07 21:27:00,38.5,15.7,29.89,WSW,241,2.0,3.0,39,0.00,CLR,CLR,0.00,WeatherDisplay:10.34,2013-03-08 04:27:00,
2013-03-07 21:32:00,38.5,15.7,29.89,WSW,241,2.0,2.0,39,0.00,CLR,CLR,0.00,WeatherDisplay:10.34,2013-03-08 04:32:00,
2013-03-07 21:37:00,38.4,16.1,29.89,WSW,241,0.0,0.0,40,0.00,CLR,CLR,0.00,WeatherDisplay:10.34,2013-03-08 04:37:00,
2013-03-07 21:42:00,38.4,14.4,29.89,WSW,241,0.0,0.0,37,0.00,CLR,CLR,0.00,WeatherDisplay:10.34,2013-03-08 04:42:00,
2013-03-07 21:47:00,38.2,14.2,29.89,WSW,241,1.0,2.0,37,0.00,CLR,CLR,0.00,WeatherDisplay:10.34,2013-03-08 04:47:00,
2013-03-07 21:52:00,37.2,12.7,29.89,SSE,153,9.0,9.0,36,0.00,CLR,CLR,0.00,WeatherDisplay:10.34,2013-03-08 04:52:00,
2013-03-07 21:57:00,36.2,13.0,29.89,SSE,159,7.0,7.0,38,0.00,CLR,CLR,0.00,WeatherDisplay:10.34,2013-03-08 04:57:00,
2013-03-07 22:00:00,35.9,13.3,29.89,SSE,159,1.0,1.0,39,0.00,CLR,CLR,0.00,WeatherDisplay:10.34,2013-03-08 05:00:00,
2013-03-07 22:02:00,35.7,13.1,29.89,SSE,160,6.0,6.0,39,0.00,CLR,CLR,0.00,WeatherDisplay:10.34,2013-03-08 05:02:00,
2013-03-07 22:03:00,35.6,13.0,29.89,South,188,5.0,5.0,39,0.00,CLR,CLR,0.00,WeatherDisplay:10.34,2013-03-08 05:03:00,
2013-03-07 22:08:00,35.3,13.3,29.89,South,190,7.0,7.0,40,0.00,CLR,CLR,0.00,WeatherDisplay:10.34,2013-03-08 05:08:00,
2013-03-07 22:13:00,35.1,13.2,29.89,SSW,196,10.0,10.0,40,0.00,CLR,CLR,0.00,WeatherDisplay:10.34,2013-03-08 05:13:00,
2013-03-07 22:18:00,35.0,13.6,29.89,SSW,202,5.0,5.0,41,0.00,CLR,CLR,0.00,WeatherDisplay:10.34,2013-03-08 05:18:00,
2013-03-07 22:23:00,35.0,13.6,29.89,SSW,206,8.0,8.0,41,0.00,CLR,CLR,0.00,WeatherDisplay:10.34,2013-03-08 05:23:00,
2013-03-07 22:28:00,35.1,13.7,29.89,SSW,209,8.0,8.0,41,0.00,CLR,CLR,0.00,WeatherDisplay:10.34,2013-03-08 05:28:00,
2013-03-07 22:33:00,35.2,13.8,29.89,SSW,211,8.0,8.0,41,0.00,CLR,CLR,0.00,WeatherDisplay:10.34,2013-03-08 05:33:00,
2013-03-07 22:38:00,35.3,13.9,29.89,SSW,210,7.0,7.0,41,0.00,CLR,CLR,0.00,WeatherDisplay:10.34,2013-03-08 05:38:00,
2013-03-07 22:43:00,35.4,14.0,29.89,SSW,210,4.0,7.0,41,0.00,CLR,CLR,0.00,WeatherDisplay:10.34,2013-03-08 05:43:00,
2013-03-07 22:48:00,35.3,13.3,29.89,SSW,203,7.0,7.0,40,0.00,CLR,CLR,0.00,WeatherDisplay:10.34,2013-03-08 05:48:00,
2013-03-07 22:53:00,35.4,14.0,29.89,SSW,203,1.0,3.0,41,0.00,CLR,CLR,0.00,WeatherDisplay:10.34,2013-03-08 05:53:00,
2013-03-07 22:58:00,35.5,13.5,29.89,WSW,240,5.0,7.0,40,0.00,CLR,CLR,0.00,WeatherDisplay:10.34,2013-03-08 05:58:00,
2013-03-07 23:03:00,35.4,13.4,29.89,WSW,240,4.0,4.0,40,0.00,CLR,CLR,0.00,WeatherDisplay:10.34,2013-03-08 06:03:00,
2013-03-07 23:08:00,35.2,13.3,29.89,SW,224,5.0,7.0,40,0.00,CLR,CLR,0.00,WeatherDisplay:10.34,2013-03-08 06:08:00,
2013-03-07 23:14:00,35.1,13.2,29.89,West,263,4.0,5.0,40,0.00,CLR,CLR,0.00,WeatherDisplay:10.34,2013-03-08 06:14:00,
2013-03-07 23:19:00,34.8,13.5,29.89,SW,218,7.0,8.0,41,0.00,CLR,CLR,0.00,WeatherDisplay:10.34,2013-03-08 06:19:00,
2013-03-07 23:24:00,35.0,13.6,29.89,SW,218,3.0,3.0,41,0.00,CLR,CLR,0.00,WeatherDisplay:10.34,2013-03-08 06:24:00,
2013-03-07 23:29:00,35.1,13.2,29.89,WSW,237,7.0,7.0,40,0.00,CLR,CLR,0.00,WeatherDisplay:10.34,2013-03-08 06:29:00,
2013-03-07 23:34:00,35.1,13.2,29.89,SW,232,5.0,5.0,40,0.00,CLR,CLR,0.00,WeatherDisplay:10.34,2013-03-08 06:34:00,
2013-03-07 23:39:00,35.0,13.1,29.89,SW,232,5.0,5.0,40,0.00,CLR,CLR,0.00,WeatherDisplay:10.34,2013-03-08 06:39:00,
2013-03-07 23:44:00,34.9,13.0,29.89,SW,232,1.0,2.0,40,0.00,CLR,CLR,0.00,WeatherDisplay:10.34,2013-03-08 06:44:00,
2013-03-07 23:49:00,34.7,12.8,29.89,SW,232,4.0,4.0,40,0.00,CLR,CLR,0.00,WeatherDisplay:10.34,2013-03-08 06:49:00,
2013-03-07 23:54:00,34.4,12.5,29.89,SW,232,6.0,6.0,40,0.00,CLR,CLR,0.00,WeatherDisplay:10.34,2013-03-08 06:54:00,
2013-03-07 23:59:00,34.2,12.4,29.89,SW,232,3.0,3.0,40,0.00,CLR,CLR,0.00,WeatherDisplay:10.34,2013-03-08 06:59:00,